Zurück zum Katalog

STARLINK-36661

AktivKommunikationVLEO
NORAD 67831·PAYLOAD·🇺🇸 United States

Gestartet Feb 16, 2026 von Vandenberg Space Force Base

Loading…

Nächste Überflüge (nächste 24 Stunden)

TLE

AktuellSource: CelesTrak SupGP

Epoche: Sep 14, 2026, 21:35 UTC

1 67831C 26033L   26257.89979167  .00016974  00000+0  61485-3 0  2577
2 67831  43.0000 278.9221 0001563 265.4621 194.4677 15.27567186    13

Verfolge STARLINK-36661 in Echtzeit mit AllMySat

Download on the App Store